FW1140 Weather Reports


time (UTC)temp
C
wind
direction
speed
KPH
gust
KPH
rain 1hr
cm
rain 24hr
cm
rain mn
cm
humidity
%
barometer
mb
20260902173113 28 92 8.0 16.1 0.00 0.18 0.00 53 1008.0
20260902171513 27 89 8.0 17.7 0.00 0.18 0.00 54 1008.1
20260902170017 26 78 8.0 16.1 0.00 0.18 0.00 56 1008.0
20260902164511 27 63 8.0 14.5 0.00 0.18 0.00 54 1008.0
20260902163052 26 69 6.4 14.5 0.00 0.18 0.00 60 1008.0
20260902161510 25 82 4.8 9.7 0.00 0.18 0.00 64 1008.0
20260902160033 25 45 3.2 9.7 0.00 0.18 0.00 68 1008.0
20260902154536 23 53 3.2 9.7 0.00 0.18 0.00 69 1008.1
20260902153005 23 13 1.6 9.7 0.00 0.18 0.00 73 1008.1
20260902151530 23 119 3.2 8.0 0.00 0.18 0.00 73 1008.4
20260902144632 21 62 3.2 8.0 0.00 0.18 0.00 79 1008.6
20260902143016 22 78 3.2 6.4 0.00 0.18 0.00 74 1008.8
20260902141503 21 15 1.6 6.4 0.00 0.18 0.00 78 1008.7
20260902140038 21 359 1.6 6.4 0.00 0.18 0.00 81 1008.7
20260902134532 20 354 0.0 1.6 0.00 0.18 0.00 83 1008.8
20260902133101 18 283 0.0 6.4 0.00 0.18 0.00 89 1009.4
20260902131611 17 287 0.0 1.6 0.00 0.18 0.00 90 1009.1
20260902130105 16 277 0.0 3.2 0.00 0.18 0.00 90 1009.4
20260902124541 16 231 0.0 9.7 0.00 0.18 0.00 90 1009.8
20260902123023 16 323 3.2 9.7 0.00 0.18 0.00 90 1009.6
20260902121505 16 297 3.2 11.3 0.00 0.18 0.00 91 1009.4
20260902120038 15 341 0.0 6.4 0.00 0.18 0.00 91 1008.6
20260902114558 15 307 1.6 6.4 0.00 0.18 0.00 92 1008.6
20260902113109 15 294 1.6 4.8 0.00 0.18 0.00 92 1008.5
20260902111540 15 316 1.6 4.8 0.00 0.18 0.00 92 1008.6
20260902110022 15 298 0.0 4.8 0.00 0.18 0.00 92 1008.6
20260902104547 15 300 1.6 4.8 0.00 0.18 0.00 93 1008.5
20260902103003 15 300 0.0 1.6 0.00 0.18 0.00 93 1008.6
20260902101519 15 300 0.0 4.8 0.00 0.18 0.00 93 1008.6
20260902100030 15 300 0.0 0.0 0.00 0.18 0.00 92 1008.7
20260902094517 15 300 0.0 0.0 0.00 0.18 0.00 92 1009.0
20260902093006 16 300 0.0 3.2 0.00 0.18 0.00 91 1009.0
20260902091530 -17 0.0 0.0 0.00 0.18 0.00 1009.0
20260902090051 -17 0.0 0.0 0.00 0.18 0.00 1008.9
20260902084545 -17 0.0 0.0 0.00 0.18 0.00 1009.2
20260902083010 -17 0.0 0.0 0.00 0.18 0.00 1009.3
20260902081529 -17 0.0 0.0 0.00 0.18 0.00 1009.2
20260902080037 -17 0.0 0.0 0.00 0.18 0.00 1009.3
20260902074527 -17 0.0 0.0 0.00 0.18 0.00 1008.9
20260902073016 -17 0.0 0.0 0.00 0.18 0.00 1009.3
20260902071543 -17 0.0 0.0 0.00 0.18 0.00 1009.0
20260902070004 -17 0.0 0.0 0.00 0.18 0.00 1008.5
20260902064519 -17 0.0 0.0 0.00 0.18 0.00 1008.2
20260902063039 -17 0.0 0.0 0.00 0.18 0.00 1008.2
20260902060014 -17 0.0 0.0 0.00 0.18 0.00 1008.6
20260902054535 -17 0.0 0.0 0.00 0.18 0.00 1008.7
20260902053044 16 310 0.0 3.2 0.00 0.18 0.00 90 1008.8
20260902051537 17 310 0.0 4.8 0.00 0.18 0.00 90 1008.7
20260902050009 17 303 0.0 1.6 0.00 0.18 0.18 88 1008.4
20260902044539 17 303 0.0 6.4 0.00 0.18 0.18 88 1009.1
20260902043109 18 1 0.0 3.2 0.00 0.18 0.18 85 1009.2
20260902041524 17 73 0.0 3.2 0.00 0.18 0.18 86 1009.0
20260902040020 17 319 0.0 0.0 0.00 0.18 0.18 89 1009.1
20260902034539 17 319 0.0 1.6 0.05 0.18 0.18 89 1009.4
20260902033041 17 319 1.6 4.8 0.13 0.18 0.18 88 1009.4
20260902031552 18 142 0.0 4.8 0.13 0.18 0.18 87 1009.5
20260902030052 18 98 1.6 4.8 0.13 0.18 0.18 84 1009.6
20260902024557 18 127 0.0 3.2 0.08 0.13 0.13 90 1009.8
20260902023114 18 260 0.0 3.2 0.00 0.05 0.05 89 1010.0
20260902021518 18 260 1.6 3.2 0.03 0.05 0.05 90 1009.8
20260902020039 19 145 0.0 1.6 0.03 0.05 0.05 90 1009.3
20260902014541 19 145 0.0 0.0 0.05 0.05 0.05 89 1008.9
20260902013005 20 145 0.0 4.8 0.05 0.05 0.05 87 1009.1
20260902011612 20 145 1.6 4.8 0.03 0.03 0.03 87 1009.4
20260902010105 20 129 0.0 3.2 0.03 0.03 0.03 89 1009.2
20260902004501 20 129 0.0 1.6 0.00 0.00 0.00 89 1009.3
20260902003020 20 129 0.0 3.2 0.00 0.00 0.00 87 1009.3
20260902001533 21 129 0.0 1.6 0.00 0.00 0.00 86 1009.4
20260902000043 21 129 0.0 0.0 0.00 0.00 0.00 84 1009.2
20260901234557 21 129 0.0 0.0 0.00 0.00 0.00 81 1009.4
20260901233047 22 129 0.0 0.0 0.00 0.00 0.00 74 1009.6
20260901231513 22 129 0.0 0.0 0.00 0.00 0.00 72 1009.4
20260901230121 23 128 0.0 3.2 0.00 0.00 0.00 73 1009.7
20260901224616 23 1 0.0 1.6 0.00 0.00 0.00 70 1009.7
20260901223032 23 1 0.0 3.2 0.00 0.00 0.00 69 1010.0
20260901221530 24 1 0.0 3.2 0.00 0.00 0.00 63 1010.2
20260901220040 25 1 0.0 3.2 0.00 0.00 0.00 60 1010.4
20260901214529 25 1 0.0 4.8 0.00 0.00 0.00 57 1010.1
20260901213108 25 28 1.6 6.4 0.00 0.00 0.00 57 1010.5
20260901211548 25 2 1.6 6.4 0.00 0.00 0.00 58 1010.5
20260901210035 25 72 1.6 4.8 0.00 0.00 0.00 59 1010.2
20260901204606 25 72 0.0 3.2 0.00 0.00 0.00 55 1010.4
20260901203021 25 72 0.0 4.8 0.00 0.00 0.00 60 1010.5
20260901201534 25 96 1.6 4.8 0.00 0.00 0.00 60 1010.4
20260901200107 25 68 4.8 8.0 0.00 0.00 0.00 60 1009.8
20260901194607 24 75 3.2 8.0 0.00 0.00 0.00 60 1009.7
20260901193036 24 127 1.6 6.4 0.00 0.00 0.00 60 1010.3
20260901191545 25 55 4.8 9.7 0.00 0.00 0.00 56 1010.3
20260901190029 26 72 3.2 9.7 0.00 0.00 0.00 55 1010.4
20260901184523 25 51 4.8 11.3 0.00 0.00 0.00 56 1010.2
20260901183043 25 122 3.2 11.3 0.00 0.00 0.00 59 1010.1
20260901181511 25 13 3.2 9.7 0.00 0.00 0.00 53 1010.3
20260901180039 25 44 3.2 8.0 0.00 0.00 0.00 56 1010.1
20260901174532 25 39 3.2 8.0 0.00 0.00 0.00 53 1010.4